Hialeah, FL (33010)

5:53 PM EDT on May 28, 2017 (GMT -0400)
Miami Springs | | Change Station

Elev 26 ft 25.83 °N, 80.29 °W | Updated 4 minutes ago

Scattered Clouds
Scattered Clouds
91.9 °F
Feels Like 105 °F
N
3.7
Wind Variable Wind from South

Today
High -- | Low -- °F
--% Chance of Precip.
Yesterday
High -- | Low -- °F
Precip. -- in
Pressure 29.99 in
Visibility 10.0 miles
Clouds Scattered Clouds 6000 ft
Heat Index 105 °F
Dew Point 77 °F
Humidity 61%
Rainfall 0.00 in
Snow Depth Not available.
6:30 AM 8:06 PM
Waxing Crescent, 14% visible
METAR KMIA 282053Z 14009KT 10SM SCT060 34/23 A2999 RMK AO2 SLP155 T03440233 $
Pressure 29.99 in
Visibility 10.0 miles
Clouds Scattered Clouds 6000 ft
Heat Index 105 °F
Dew Point 77 °F
Humidity 61%
Rainfall 0.00 in
Snow Depth Not available.
6:30 AM 8:06 PM
Waxing Crescent, 14% visible
METAR KMIA 282053Z 14009KT 10SM SCT060 34/23 A2999 RMK AO2 SLP155 T03440233 $

Get Severe Weather Alerts

Thanks for signing up!

Be on the lookout for a verification email in your inbox.

You'll start receiving the daily forecast at 6 AM.

×

10-Day Weather Forecast

Almanac

Astronomy

May. 28, 2017 Rise Set
Actual Time
Civil Twilight
Nautical Twilight
Astronomical Twilight
Moon
Length of Visible Light
Length of Day
Tomorrow will be .
, % of the Moon is Illuminated

Today's Extremes

State Highs State Lows

Community

WunderPhotos

Category 6

Welcome to Category 6. This is the collective home for Weather Underground's featured writeups by Dr. Jeff Masters (right), Bob Henson (left), Chris Burt, and other regular contributors.

Nearby

Air Quality

  Air Quality AQ Index Pollutant
Not available.

Snow Depth

Station Depth Elevation

Earthquake Activity

City Distance Mag. Time & Date
Minimum magnitude displayed is 2.5.

Coastal Water Temperatures

Place Temperature

Stations

Nearby Weather Stations

Station Location Temp. Windchill Dew Point Humidity Wind Precip. Elev Updated Type
                   

Watches & Warnings

There are currently no watches in effect.